Regional Weather Roundup
Issued by NWS

Home | Current Version | Previous Version | Text Only | Print | Product List | Glossary Off
Versions: 1 2 3 4 5 6 7 8 9 10 11 12 13 14 15 16 17 18 19 20 21 22 23 24 25 26 27 28 29 30 31 32 33 34 35 36 37 38 39 40 41 42 43 44 45 46 47 48 49 50

000
ASUS43 KLOT 222310
RWRIL

ILLINOIS REGIONAL WEATHER ROUNDUP
NATIONAL WEATHER SERVICE CHICAGO/ROMEOVILLE IL
600 PM CDT FRI AUG 22 2014

NOTE: "FAIR" INDICATES FEW OR NO CLOUDS BELOW 12,000 FEET WITH NO
SIGNIFICANT WEATHER AND/OR OBSTRUCTIONS TO VISIBILITY.

* THESE STATIONS ARE NOT UNDER NWS QUALITY CONTROL. THEY ALSO MAY NOT
  REPORT WEATHER SUCH AS PRECIPITATION OR FOG.

ILZ001-002-007-009-015-016-024-230000-
NORTHWEST ILLINOIS

CITY           SKY/WX    TMP DP  RH WIND       PRES   REMARKS
MOLINE         PTSUNNY   85  75  72 S5        29.92R HX  93
STERLING*      PTSUNNY   84  75  74 CALM      29.94R HX  92
SAVANNA*       PTSUNNY   85  74  69 SE3       29.92S HX  92
$$

ILZ003-004-008-010-011-017-018-230000-
NORTH CENTRAL ILLINOIS

CITY           SKY/WX    TMP DP  RH WIND       PRES   REMARKS
ROCKFORD       PTSUNNY   82  74  76 SW5       29.95S HX  88
FREEPORT*      SUNNY     82  76  81 CALM      29.96S HX  90
ROCHELLE*      SUNNY     82  73  74 CALM      29.95S HX  87
DE KALB*       MOSUNNY   81  73  77 W5        29.96F HX  85
PERU*          PTSUNNY   84  73  69 CALM      29.95S HX  90
$$

ILZ005-006-012>014-019>023-230000-
NORTHEAST ILLINOIS

CITY           SKY/WX    TMP DP  RH WIND       PRES   REMARKS
CHICAGO-OHARE  PTSUNNY   84  71  65 SW7       29.93R HX  89
CHICAGO-MIDWAY PTSUNNY   85  74  69 SW10      29.93S HX  92
AURORA         SUNNY     83  73  72 NW3       29.95S HX  89
LANSING*       MOSUNNY   83  72  69 W10       29.95R HX  87
JOLIET*        PTSUNNY   83  71  67 SW3       29.95S HX  88
WAUKEGAN       MOSUNNY   77  71  82 E7        29.94R
DUPAGE AIRPORT MOSUNNY   83  74  74 W9        29.94S HX  89
KANKAKEE*      MOSUNNY   83  75  78 SW6       29.97S HX  90
WHEELING       MOSUNNY   83  74  74 E6        29.95R HX  89
MORRIS*        MOSUNNY   83  74  74 CALM      29.95S HX  90
ROMEOVILLE*    CLOUDY    81  73  76 CALM      29.95S HX  85
NORTHERLY ISL    N/A     78  73  84 CALM        N/A  HX  81
$$

LMZ740>746-230000-
SOUTHERN LAKE MICHIGAN

STATION/POSITION SKY/WX   TEMP    WIND        PRES    VSBY  WAVE
                          AIR SEA DIR/SP/G                  HT/PER
                          (F)     (DEG/KT/KT) (MB)    (MI)  (FT/S)
SOUTHERN BUOY              72 71   80/  6/  6 1014.1R         0
WAUKEGAN HARBOR            82        CALM       N/A
HARRISON CRIB              76     110/  7/  8   N/A
BURNHAM HARBOR             77      CALM  /  3   N/A
CALUMET HARBOR             84     230/  6/  9 1012.6S
MICHIGAN CITY              79      30/  3/  3   N/A
MICHIGAN CITY 6N           78 75   90/  2/  2   N/A           0
ST. JOSEPH                 77 72  280/  2/  2   N/A           0
$$

ILZ025>027-034>036-040-047-049-050-058-095>099-230000-
WEST-CENTRAL ILLINOIS

CITY           SKY/WX    TMP DP  RH WIND       PRES   REMARKS
QUINCY         PTSUNNY   86  76  71 S5        29.92F HX  96
GALESBURG*     PTSUNNY   87  76  70 S3        29.94S HX  97
MACOMB*        CLOUDY    85  77  78 SW3       29.96R HX  95
JACKSONVILLE*  MOSUNNY   88  78  73 SW7       29.94S HX 101
PITTSFIELD*    PTSUNNY   87  75  68 S3        29.94S HX  96
$$

ILZ028>032-037-038-041>044-048-051>054-059>061-230000-
CENTRAL ILLINOIS

CITY           SKY/WX    TMP DP  RH WIND       PRES   REMARKS
PONTIAC        SUNNY     84  75  74 CALM      29.96F HX  92
DECATUR        CLOUDY    86  75  69 S5        29.96R HX  95
PEORIA         SUNNY     87  74  64 SW5       29.94S HX  95
LACON*         SUNNY     85  74  70 SW3       29.94R HX  92
LINCOLN*       MOSUNNY   87  75  65 CALM      29.92R HX  96
SPRINGFIELD    PTSUNNY   88  78  72 CALM      29.94R HX 101
TAYLORVILLE    MOSUNNY   82  79  89 S5        29.95S HX  93
$$

ILZ033-039-045-046-055>057-062-063-230000-
EAST-CENTRAL ILLINOIS

CITY           SKY/WX    TMP DP  RH WIND       PRES   REMARKS
CHAMPAIGN      CLOUDY    84  75  74 E3        29.98S HX  92
DANVILLE*      RAIN      81  74  79 CALM      29.95S HX  86
RANTOUL*       MOSUNNY   85  69  57 CALM      29.99R HX  89
MATTOON        PTSUNNY   83  76  79 SW3       29.96F HX  91
PARIS*         PTSUNNY   82  78  87 CALM      29.98S HX  91
$$

ILZ079-100>102-230000-
SOUTHWEST ILLINOIS

CITY           SKY/WX    TMP DP  RH WIND       PRES   REMARKS
BELLEVILLE     CLOUDY    88  80  75 VRB1      29.92S HX 104
CAHOKIA*       CLOUDY    89  80  74 SE3       29.92S HX 106
SPARTA*        PTSUNNY   88  77  71 S5        29.94F HX 100
$$

ILZ064>066-069>071-074>076-080>082-084>086-088>090-092>094-230000-
SOUTH-CENTRAL ILLINOIS

CITY           SKY/WX    TMP DP  RH WIND       PRES   REMARKS
CARBONDALE     PTSUNNY   88  75  65 S9        29.94F HX  97
CAIRO*         MOSUNNY   92  77  61 S5        29.95F HX 106
MARION         PTSUNNY   90  77  66 S14       29.95F HX 102
MT. VERNON     CLOUDY    88  77  70 S6        29.95S HX 100
CENTRALIA*     CLOUDY    89  76  66 CALM      29.95S HX 101
SALEM*         CLOUDY    87  80  79 CALM      29.95S HX 102
METROPOLIS*    MOSUNNY   91  71  52 SW6       29.95S HX  97
$$

ILZ067-068-072-073-078-083-087-091-230000-
SOUTHEAST ILLINOIS

CITY           SKY/WX    TMP DP  RH WIND       PRES   REMARKS
LAWRENCEVILLE  PTSUNNY   85  77  77 N6        29.96S HX  95
FLORA*         PTSUNNY   85  77  78 CALM      29.96S HX  95
FAIRFIELD*     CLOUDY    88  81  79 CALM      29.95R HX 105
HARRISBURG*    CLOUDY    87  77  70 SW6       29.96S HX  99
ROBINSON*      CLOUDY    84  79  87 CALM      29.97S HX  96
CARMI*         CLOUDY    88  79  74 CALM      29.94S HX 102
$$

ABBREVIATIONS USED IN REMARKS
   TC - TEMPERATURE IN CELSIUS
  WCI - WIND CHILL INDEX
   HX - HEAT INDEX
  VSB - VISIBILITY
$$




USA.gov is the U.S. government's official web portal to all federal, state and local government web resources and services.